Location: Coopersdale
(40.3556°N, 78.9372°W)
Time: 19:34:37
(UTC+00:00)

Transit 4A - Pass Details

Date: 24 January 2021
Orbit: 866 x 978 km, 66.8° (Epoch: 26 February)

Event Time Altitude Azimuth Distance (km) Brightness Sun altitude
Rises 02:12:14 0° 261° (W) 3,673 11.7 -43.3°
Reaches altitude 10° 02:15:49 10° 280° (W) 2,728 10.9 -44.0°
Enters shadow 02:19:26 17° 315° (NW) 2,245 10.3 -44.6°
Maximum altitude 02:19:53 17° 320° (NW) 2,238 - -44.7°
Drops below altitude 10° 02:23:57 10° 1° (N) 2,717 - -45.5°
Sets 02:27:31 0° 20° (NNE) 3,652 - -46.1°
